[[{"header":{"parameterUnit":"m.s-1","parameterCategory":1,"la1":30.2991,"la2":30.254,"lo1":-89.0895,"lo2":-89.0444,"dy":0.0017,"dx":0.0017,"nx":28,"ny":28,"refTime":"2024-06-27T09:00:00:Z","depth":0,"parameterNumber":2,"parameterNumberName":"U-component_of_WINDS"},"data":[0,0,0,0,0,0,0,0,0,0,0,0,0,0,0,0,0,0,0,0,0,0,0,0,0,0,0,0,0,0,0,0,0,0,0,0,0,0,0,0,0,0,0,0,0,0,0,0,0,0,0,0,0,0,0,0,0,0,7.8744,7.8746,0,7.8942,7.8944,7.8946,7.8837,7.8831,7.8826,7.8821,7.9025,7.9036,7.9046,0,0,0,0,0,0,0,0,0,0,0,0,0,7.8269,7.8279,7.8744,7.8746,7.8749,7.8942,7.8944,7.8947,7.8838,7.8831,7.8825,7.8818,7.9022,7.9034,7.9047,0,0,0,0,0,0,0,0,0,0,0,0,0,7.8472,7.8282,7.8743,7.8717,7.8717,7.8941,7.8944,7.8948,7.8839,7.8831,7.8823,7.8815,7.9018,7.9033,7.9049,7.931,0,0,7.9097,7.9104,0,0,0,0,0,0,0,0,7.8461,7.849,7.8719,7.872,7.8719,7.8856,7.8852,7.9069,7.8841,7.8793,7.8821,7.8811,7.8976,7.8995,7.905,7.932,7.9328,7.9098,7.9108,7.9115,7.9119,0,0,0,0,0,0,0,7.8447,7.8481,7.8822,7.8722,7.8723,7.8695,7.8715,7.8893,7.8928,7.8797,7.8789,7.8814,7.8974,7.9035,7.9054,7.9331,7.9098,7.9112,7.9122,7.9128,7.9821,7.9829,0,0,0,0,0,0,7.8435,7.847,7.8816,7.8828,7.8567,7.8711,7.8733,7.8821,7.8926,7.8934,7.8821,7.8808,7.9012,7.9035,7.9061,7.937,7.9115,7.9129,7.9138,7.9812,7.9823,7.9832,0,0,0,0,0,0,7.8425,7.8466,7.8808,7.8647,7.8688,7.8727,7.8827,7.8829,7.8889,7.8944,7.895,7.8876,7.9006,7.9038,7.9248,7.9376,7.9137,7.9151,7.9801,7.9815,7.9828,7.9993,0,0,0,0,0,0,7.8412,7.8464,7.8564,7.865,7.8697,7.8993,7.8835,7.8839,7.8916,7.8902,7.8997,7.9005,7.9002,7.9225,7.9263,7.9393,7.9163,7.979,7.9808,7.9823,7.9977,8.0011,8.004,0,0,0,0,0,7.8395,7.8604,7.8569,7.8612,7.8823,7.9,7.9027,7.9019,7.8927,7.9028,7.9062,7.9002,7.9356,7.9247,7.929,7.9426,7.9782,7.9803,7.9822,7.9962,8.0004,8.0039,0,0,0,0,0,0,7.8533,7.8615,7.8578,7.8821,7.8904,7.8981,7.9108,7.9064,7.9176,7.9158,7.9144,7.9166,7.9383,7.9426,7.9303,7.9682,7.9554,7.9584,7.9646,7.9686,7.9718,7.9702,7.9176,0,0,0,0,0,7.8592,7.8728,7.8792,7.9001,7.9044,7.9069,7.9146,7.9132,7.9219,7.9254,7.9304,7.939,7.9519,7.9606,7.9729,7.9982,8.0,8.0097,8.0129,8.0154,8.018,8.0313,8.0356,7.9898,7.9898,7.9898,0,0,7.8714,7.8776,7.8863,7.903,7.9093,7.9234,7.91,7.9256,7.9359,7.9277,7.9477,7.9517,7.9612,7.9843,7.9948,7.9885,8.031,8.018,8.02,8.0212,8.0338,8.0381,8.042,7.9912,7.991,7.9907,0,0,7.9009,7.9071,7.9249,7.9314,7.9411,7.9425,7.9468,7.9552,7.9575,7.9775,7.9715,7.9838,8.0064,8.0132,8.0197,8.0515,8.0462,8.0555,8.072,8.085,8.0886,8.0918,8.1028,8.1068,8.058,8.0581,8.0581,0,7.9149,7.9359,7.9346,7.9506,7.9579,7.951,7.9689,7.9754,7.9886,7.9938,7.9866,8.0144,8.0204,8.0449,8.0526,8.0582,8.0628,8.0544,8.0882,8.0914,8.0944,8.1048,8.109,8.0591,8.059,8.0589,8.0588,0,7.9525,7.9672,7.9804,7.9932,8.0021,8.019,8.0201,8.0292,8.027,8.0292,8.0495,8.0563,8.0697,8.0755,8.0736,8.0996,8.0954,8.0883,8.0754,8.0998,8.1096,8.1136,8.0606,8.0603,8.0599,8.0597,0,0,7.9914,8.0029,8.0078,8.0133,8.0234,8.0346,8.0511,8.0641,8.0718,8.0811,8.0947,8.1138,8.1071,8.1145,8.1133,8.1248,8.149,8.1162,8.1163,8.1218,8.1777,8.1828,8.1875,8.1457,8.1464,8.147,8.1768,0,8.0213,8.05,8.0491,8.0758,8.0891,8.0826,8.0969,8.1045,8.107,8.1186,8.1213,8.1347,8.1251,8.1294,8.1405,8.1437,8.1602,8.1416,8.1581,8.1587,8.1557,8.1927,8.1982,8.226,8.1807,8.1813,8.1818,0,8.06,8.0704,8.0984,8.1061,8.1116,8.1245,8.1361,8.1474,8.1558,8.1567,8.1648,8.1616,8.1781,8.1649,8.1874,8.1748,8.1815,8.1841,8.1852,8.1865,8.1716,8.1947,8.2348,8.2389,8.1879,8.1874,8.1869,0,8.0851,8.1061,8.1255,8.1305,8.14,8.1492,8.1536,8.1612,8.1689,8.1791,8.184,8.196,8.2026,8.2119,8.212,8.2024,8.2347,8.2216,8.2358,8.2358,8.2427,8.2423,8.2842,8.2475,8.2475,8.2474,8.2473,0,8.1185,8.1358,8.1368,8.1487,8.1678,8.1666,8.1855,8.189,8.1958,8.2081,8.2033,8.215,8.2145,8.2264,8.2266,8.245,8.2481,8.2492,8.249,8.2495,8.2493,8.2537,8.2517,8.2485,8.2483,8.248,8.2479,0,8.1497,8.1512,8.1717,8.179,8.1812,8.195,8.2011,8.2123,8.2142,8.2299,8.2335,8.2365,8.2501,8.2511,8.267,8.2671,8.2893,8.2872,8.2865,8.286,8.3,8.2986,8.3461,8.3521,8.3118,8.3121,8.3125,0,8.1708,8.1839,8.1925,8.2003,8.2052,8.218,8.2258,8.2251,8.2333,8.2437,8.2536,8.2667,8.2771,8.2992,8.3027,8.3147,8.3126,8.3284,8.3144,8.3143,8.3125,8.3116,8.3127,8.3311,8.3315,8.3319,8.3322,0,8.208,8.2079,8.2193,8.2309,8.2403,8.2494,8.2579,8.2646,8.2648,8.2744,8.2881,8.2962,8.3122,8.3252,8.3368,8.3412,8.3368,8.3366,8.3404,8.341,8.3398,8.3403,8.2936,8.3355,8.3352,8.3349,8.3347,8.3346,8.2346,8.2457,8.2534,8.2662,8.2724,8.2804,8.2911,8.2943,8.3057,8.3186,8.3175,8.3327,8.3404,8.3555,8.3609,8.3726,8.3672,8.3729,8.3743,8.3757,8.3769,8.3382,8.3748,8.3747,8.3746,8.3745,8.3745,0,8.2712,8.2757,8.2874,8.2993,8.3093,8.3041,8.3132,8.3218,8.3352,8.3428,8.3531,8.3687,8.3812,8.3856,8.3977,8.4062,8.4044,8.4094,8.4086,8.4096,8.3812,8.3765,8.4106,8.4106,8.4106,8.4106,8.4106,8.4106,8.2914,8.3099,8.3107,8.3322,8.3366,8.3514,8.3569,8.3641,8.3701,8.3878,8.398,8.4008,8.4071,8.4195,8.4306,8.4316,8.4361,8.4419,8.442,8.4153,8.4117,8.4082,8.4037,8.443,8.443,8.4693,8.4696,8.4698]},{"header":{"parameterUnit":"m.s-1","parameterCategory":1,"la1":30.2991,"la2":30.254,"lo1":-89.0895,"lo2":-89.0444,"dy":0.0017,"dx":0.0017,"nx":28,"ny":28,"refTime":"2024-06-27T09:00:00:Z","depth":0,"parameterNumber":3,"parameterNumberName":"V-component_of_WINDS"},"data":[0,0,0,0,0,0,0,0,0,0,0,0,0,0,0,0,0,0,0,0,0,0,0,0,0,0,0,0,0,0,0,0,0,0,0,0,0,0,0,0,0,0,0,0,0,0,0,0,0,0,0,0,0,0,0,0,0,0,2.3219,2.3219,0,2.3169,2.3168,2.3168,2.3126,2.3126,2.3125,2.3125,2.3072,2.3071,2.307,0,0,0,0,0,0,0,0,0,0,0,0,0,2.3277,2.3277,2.322,2.3219,2.3218,2.3169,2.3168,2.3167,2.3126,2.3126,2.3125,2.3124,2.3072,2.3071,2.307,0,0,0,0,0,0,0,0,0,0,0,0,0,2.3242,2.3276,2.322,2.3192,2.3189,2.3169,2.3168,2.3167,2.3126,2.3125,2.3125,2.3124,2.3072,2.3071,2.3069,2.3073,0,0,2.3065,2.3064,0,0,0,0,0,0,0,0,2.3244,2.324,2.3196,2.3194,2.319,2.3153,2.3169,2.3136,2.3126,2.315,2.3125,2.3124,2.3099,2.3095,2.3087,2.3071,2.3068,2.3065,2.3064,2.3063,2.3063,0,0,0,0,0,0,0,2.3247,2.3242,2.3199,2.3196,2.3192,2.3181,2.3175,2.3162,2.3129,2.3148,2.3145,2.3139,2.3097,2.3089,2.3086,2.3068,2.3065,2.3063,2.3062,2.3062,2.3047,2.3048,0,0,0,0,0,0,2.3254,2.3244,2.3201,2.3198,2.3216,2.318,2.3174,2.3166,2.3129,2.3123,2.314,2.3137,2.3092,2.3088,2.3084,2.3083,2.3063,2.3062,2.3061,2.3047,2.3047,2.3048,0,0,0,0,0,0,2.3255,2.325,2.3203,2.322,2.3213,2.318,2.3171,2.3165,2.3156,2.3123,2.3116,2.3138,2.3091,2.3086,2.3075,2.3081,2.3061,2.306,2.3046,2.3047,2.3048,2.3084,0,0,0,0,0,0,2.3257,2.3251,2.3253,2.322,2.3213,2.3197,2.3171,2.3164,2.3154,2.315,2.3119,2.3113,2.309,2.3078,2.3074,2.3079,2.3059,2.3046,2.3047,2.3048,2.3082,2.3086,2.3089,0,0,0,0,0,2.3259,2.3266,2.3253,2.3248,2.3214,2.3197,2.3192,2.3166,2.3155,2.3156,2.3133,2.3114,2.3081,2.3077,2.3072,2.3077,2.3045,2.3046,2.3047,2.3081,2.3085,2.3089,0,0,0,0,0,0,2.33,2.3261,2.3247,2.3244,2.3224,2.319,2.3191,2.3172,2.3156,2.3153,2.3121,2.3114,2.3106,2.309,2.3087,2.3076,2.306,2.3061,2.3087,2.3091,2.3095,2.3099,2.3057,0,0,0,0,0,2.3309,2.3299,2.3265,2.3265,2.3256,2.3225,2.3217,2.3198,2.3176,2.3168,2.3145,2.3124,2.3108,2.3099,2.3083,2.3079,2.3071,2.308,2.3083,2.3086,2.3087,2.3081,2.3084,2.3052,2.3052,2.3052,0,0,2.3327,2.3304,2.33,2.3273,2.3255,2.3244,2.3218,2.3209,2.32,2.3166,2.3154,2.3136,2.3111,2.3103,2.3098,2.3089,2.3093,2.3088,2.3091,2.3089,2.3082,2.3085,2.3088,2.3053,2.3053,2.3052,0,0,2.3353,2.3336,2.3333,2.3316,2.3289,2.3268,2.3268,2.3236,2.3223,2.321,2.3184,2.3172,2.3147,2.3129,2.3116,2.3132,2.3113,2.3128,2.3146,2.3141,2.3143,2.3145,2.3149,2.3151,2.3129,2.3129,2.3129,0,2.3379,2.3362,2.3334,2.3325,2.3312,2.3281,2.3276,2.3261,2.323,2.3222,2.3212,2.3178,2.3158,2.3145,2.3148,2.314,2.3136,2.3132,2.3145,2.3147,2.3149,2.3152,2.3154,2.3131,2.313,2.313,2.313,0,2.3394,2.3382,2.3383,2.3354,2.3341,2.3335,2.3304,2.3295,2.3276,2.3255,2.3241,2.3217,2.3194,2.3189,2.3171,2.3172,2.3167,2.3152,2.3135,2.3154,2.3156,2.3158,2.3133,2.3133,2.3132,2.3132,0,0,2.3446,2.34,2.3401,2.3386,2.3353,2.3343,2.3334,2.3311,2.3303,2.3282,2.3272,2.325,2.3235,2.3221,2.32,2.3196,2.3207,2.3181,2.3179,2.3185,2.3203,2.3214,2.3216,2.3194,2.3194,2.3194,2.3205,0,2.3467,2.3449,2.3422,2.3413,2.34,2.3369,2.336,2.3338,2.3318,2.3303,2.328,2.3264,2.3247,2.3238,2.3232,2.3207,2.321,2.3206,2.3183,2.3182,2.319,2.3218,2.323,2.3241,2.3206,2.3206,2.3206,0,2.3489,2.3469,2.3459,2.3424,2.3418,2.3411,2.3387,2.3374,2.3347,2.3332,2.3315,2.3292,2.3279,2.3263,2.3243,2.324,2.3229,2.3215,2.3215,2.3211,2.3195,2.3214,2.3244,2.3246,2.3207,2.3207,2.3207,0,2.3526,2.3497,2.3487,2.3475,2.3436,2.3431,2.3414,2.3387,2.3374,2.3352,2.3343,2.332,2.3307,2.3289,2.3259,2.3251,2.3241,2.3224,2.3227,2.3227,2.3226,2.3227,2.3254,2.322,2.322,2.322,2.322,0,2.3552,2.3546,2.3503,2.3496,2.3488,2.3456,2.3448,2.3428,2.3403,2.3391,2.3362,2.335,2.3312,2.3296,2.3273,2.3257,2.3252,2.3239,2.3232,2.3241,2.3242,2.3233,2.3231,2.3221,2.322,2.322,2.322,0,2.3592,2.3563,2.3549,2.3512,2.3502,2.3498,2.3465,2.3456,2.3434,2.3418,2.3412,2.3376,2.3355,2.3323,2.3293,2.3277,2.3265,2.3255,2.3274,2.327,2.3274,2.3274,2.3296,2.3297,2.3264,2.3264,2.3264,0,2.361,2.3605,2.3567,2.3556,2.354,2.3524,2.3511,2.3478,2.3464,2.3432,2.3427,2.3403,2.3382,2.3349,2.3319,2.3295,2.3284,2.3293,2.328,2.3288,2.3282,2.3282,2.3281,2.3296,2.3297,2.3297,2.3298,0,2.3644,2.3629,2.3612,2.3588,2.3572,2.3552,2.353,2.3523,2.3485,2.3471,2.3449,2.3433,2.34,2.3376,2.3347,2.3328,2.3306,2.3302,2.3301,2.331,2.332,2.3313,2.3282,2.3302,2.3301,2.3301,2.3301,2.3301,2.3673,2.3666,2.3637,2.3617,2.3597,2.3577,2.3566,2.3541,2.3522,2.3494,2.3475,2.3453,2.3423,2.3382,2.3363,2.3345,2.3336,2.3335,2.3334,2.3334,2.3337,2.3323,2.3339,2.3339,2.3339,2.3339,2.3339,0,2.3704,2.3684,2.3666,2.3636,2.3619,2.36,2.3574,2.3561,2.3543,2.3517,2.3497,2.347,2.3446,2.3413,2.3386,2.3377,2.3366,2.3371,2.3371,2.3366,2.3347,2.335,2.338,2.338,2.338,2.338,2.338,2.338,2.3718,2.3705,2.3686,2.3661,2.364,2.3619,2.3605,2.3585,2.3565,2.3536,2.3516,2.3495,2.3465,2.3435,2.3411,2.3402,2.3393,2.3401,2.3388,2.3371,2.3368,2.3364,2.3367,2.3399,2.3399,2.3408,2.3408,2.3409]}]]